{"data":{"norad_id":68931,"intl_designator":"2026-098N","name":"KUIPER-00416","alt_names":[],"object_type":"PAYLOAD","status":"ACTIVE","operator":null,"country":"US","launch_date":"2026-04-30","launch_site_code":"FRGUI","launch_vehicle":null,"mission":null,"orbit_class":"UNKNOWN","rcs_meters":null,"size_class":null,"mass_kg":null,"dimensions":null,"purposes":[],"wikipedia_slug":null,"has_3d_model":false,"image_url":null,"decayed_at":null,"tle_current":{"epoch":"2026-09-19T13:36:01.161504Z","epoch_age_seconds":96192,"freshness":"FRESH","line1":"1 68931U 26098N   26262.56668011  .00001060  00000+0  16801-3 0  9998","line2":"2 68931  51.9032 347.1757 0000498 113.3245 246.7770 14.79929239 21644","mean_motion":14.79929239,"eccentricity":4.98e-5,"inclination_deg":51.9032,"raan_deg":347.1757,"arg_perigee_deg":113.3245,"mean_anomaly_deg":246.777,"bstar":0.00016801,"rev_number":2164,"period_min":97.301949448138,"perigee_km":629.19851905697,"apogee_km":629.89648443335,"semimajor_km":7007.6845017452,"source":"CELESTRAK","updated_at":"2026-09-20T09:00:24.556093Z"}}}